TimeCDT,TemperatureF,Dew PointF,Humidity,Sea Level PressureIn,VisibilityMPH,Wind Direction,Wind SpeedMPH,Gust SpeedMPH,PrecipitationIn,Events,Conditions,WindDirDegrees,DateUTC
12:53 AM,81.0,60.1,49,29.92,10.0,South,17.3,29.9,N/A,,Clear,180,2013-08-26 05:53:00
1:53 AM,80.1,60.1,50,29.93,10.0,South,17.3,27.6,N/A,,Clear,180,2013-08-26 06:53:00
2:53 AM,79.0,60.1,52,29.92,10.0,South,16.1,26.5,N/A,,Clear,180,2013-08-26 07:53:00
3:53 AM,78.1,60.1,54,29.92,10.0,South,13.8,23.0,N/A,,Clear,180,2013-08-26 08:53:00
4:53 AM,75.9,60.1,58,29.92,10.0,South,12.7,21.9,N/A,,Clear,180,2013-08-26 09:53:00
5:53 AM,75.0,60.1,60,29.92,10.0,South,13.8,21.9,N/A,,Clear,180,2013-08-26 10:53:00
6:53 AM,73.0,60.1,64,29.94,10.0,South,11.5,-,N/A,,Clear,180,2013-08-26 11:53:00
7:53 AM,73.0,60.1,64,29.96,10.0,Calm,Calm,-,N/A,,Clear,0,2013-08-26 12:53:00
8:53 AM,75.9,62.1,62,29.95,10.0,South,9.2,-,N/A,,Clear,190,2013-08-26 13:53:00
9:53 AM,82.0,62.1,51,29.95,10.0,SSW,9.2,-,N/A,,Clear,210,2013-08-26 14:53:00
10:53 AM,86.0,60.1,41,29.94,10.0,SSW,11.5,-,N/A,,Clear,210,2013-08-26 15:53:00
11:53 AM,91.0,61.0,36,29.93,10.0,SW,10.4,-,N/A,,Clear,220,2013-08-26 16:53:00
12:53 PM,93.9,60.1,32,29.91,10.0,SW,13.8,-,N/A,,Clear,220,2013-08-26 17:53:00
1:53 PM,97.0,61.0,30,29.89,10.0,SSE,9.2,-,N/A,,Clear,160,2013-08-26 18:53:00
2:53 PM,99.0,57.9,25,29.87,10.0,South,13.8,20.7,N/A,,Clear,190,2013-08-26 19:53:00
3:53 PM,99.0,57.9,25,29.84,10.0,South,9.2,-,N/A,,Scattered Clouds,180,2013-08-26 20:53:00
4:53 PM,100.0,60.1,27,29.83,10.0,South,10.4,-,N/A,,Partly Cloudy,170,2013-08-26 21:53:00
5:53 PM,99.0,60.1,28,29.83,10.0,SSW,10.4,-,N/A,,Scattered Clouds,200,2013-08-26 22:53:00
6:53 PM,93.0,57.9,31,29.83,10.0,South,8.1,-,N/A,,Scattered Clouds,180,2013-08-26 23:53:00
7:53 PM,91.9,64.0,39,29.84,10.0,Calm,Calm,-,N/A,,Overcast,0,2013-08-27 00:53:00
8:53 PM,84.9,57.0,38,29.86,10.0,Calm,Calm,-,N/A,,Partly Cloudy,0,2013-08-27 01:53:00
9:53 PM,82.0,55.9,41,29.86,10.0,SSE,5.8,-,N/A,,Clear,160,2013-08-27 02:53:00
10:53 PM,82.9,57.9,42,29.86,10.0,South,11.5,-,N/A,,Clear,180,2013-08-27 03:53:00
11:53 PM,81.0,57.9,45,29.86,10.0,South,11.5,19.6,N/A,,Clear,180,2013-08-27 04:53:00